Flag for Canada Weather past 2 weeks in Pond Inlet, Nunavut Territory, Canada

Now
54 °F

Overcast.


Feels Like: 54 °F
Forecast: 47 / 58 °F
Wind: No wind

Location: Pond Inlet

Current Time: Aug 1, 2014 at 4:49:43 AM

Latest Report: Aug 1, 2014 at 4:00 AM


Visibility: 9 mi

Pressure: 30.00 "Hg

Humidity: 82%

Dew point: 48 °F

Location of Pond InletLocation

Historic Weather in Pond Inlet — Graph

°F

Pond Inlet temperature yesterday

Maximum temperature yesterday: 54 °F (at 8:00 PM)
Minimum temperature yesterday: 43 °F (at 9:00 AM)
Average temperature yesterday: 49 °F

Past Weeks' High & Low Weather Summary

 TemperatureHumidityPressure
High61 °F (Jul 25, 4:00 PM)100% (Jul 17, 6:00 AM)30.15 "Hg (Jul 17, 6:00 AM)
Low36 °F (Jul 28, 4:00 AM)55% (Jul 19, 3:00 PM)29.36 "Hg (Jul 18, 12:00 PM)
Average47 °F83%29.84 "Hg
* Reported Jul 17 3:00 AM — Aug 1 3:00 AM, Pond Inlet, Weather by CustomWeather, © 2014

Note: Actual official high and low records may vary slightly from our data, if they occured in-between our weather recording intervals... More about our weather records

Advertising

Pond Inlet weather history for previous 24 hours

 ConditionsComfort  
Time TempWeatherWind HumidityBarometerVisibility
3:00 AM
Aug 1
52 °FOvercast.5 mph88%30.00 "Hg9 mi
2:00 AM54 °FOvercast.7 mph82%30.00 "Hg9 mi
1:00 AM52 °FOvercast.10 mph88%30.01 "Hg9 mi
12:00 AM52 °FOvercast.10 mph88%30.02 "Hg9 mi
11:00 PM
Jul 31
50 °FPassing clouds.9 mph94%30.03 "Hg9 mi
10:00 PM54 °FSunny.5 mph82%30.03 "Hg9 mi
9:00 PM52 °FSunny.No wind82%30.04 "Hg9 mi
8:00 PM54 °FScattered clouds.2 mph82%30.04 "Hg9 mi
7:00 PM52 °FMostly cloudy.3 mph88%30.06 "Hg40 mi
6:00 PM52 °FMore clouds than sun.3 mph82%30.06 "Hg40 mi
5:00 PM50 °FCloudy.2 mph88%30.08 "Hg40 mi
4:00 PM52 °FLight rain. More clouds than sun.No wind82%30.08 "Hg30 mi
3:00 PM50 °FMore clouds than sun.2 mph88%30.09 "Hg40 mi
2:00 PM52 °FMore clouds than sun.3 mph88%30.10 "Hg40 mi
1:55 PM52 °FMore clouds than sun.3 mph82%30.10 "Hg40 mi
1:00 PM50 °FLight rain. Fog.5 mph94%30.10 "Hg40 mi
12:00 PM48 °FLight rain. Fog.5 mph94%30.10 "Hg13 mi
11:00 AM45 °FFog.3 mph100%30.11 "Hg5 mi
10:00 AM46 °FLight rain. Mostly cloudy.No wind93%30.11 "Hg9 mi
9:00 AM43 °FLight rain. Overcast.5 mph100%30.14 "Hg9 mi
8:00 AM46 °FOvercast.2 mph93%30.13 "Hg9 mi
7:00 AM48 °FOvercast.2 mph94%30.13 "Hg9 mi
6:00 AM48 °FOvercast.No wind87%30.13 "Hg9 mi
5:00 AM48 °FOvercast.No wind94%30.14 "Hg9 mi
4:00 AM46 °FOvercast.2 mph93%30.14 "Hg9 mi
Weather by CustomWeather, © 2014

See weather overviewHow to use our weather pages